contact:dominique.lefevre@mio.osupytheas.fr, maurice.libes@osupytheas.fr, didier.mallarino@osupytheas.fr
Project:EMSO http://www.emso-fr.org/EMSO-France
Depth: 2436.0 m
Title:EMSO Ligure Ouest : Data MII capteur AQUADOPP
Date,Latitude,Longitude,X_East,Y_North,Z_Up,Amplitude_X,Amplitude_Y,Amplitude_Z,Batterie,SoundSpeed,Heading,Pitch,Roll,Pressure,TIS,Speed,Direction
, degrees North, degrees East, m.s-1, m.s-1,m.s-1, 1, 1, 1, Volt, m.s-1, degree, degree, degree, dbar, degree_C, m.s-1, degree
2021-06-06T00:04:03,42.805,6.029,-0.02,-0.002,0.043,101.0,101.0,100.0,13.4,1505.2,327.1,-0.7,1.8,2470.503,13.28,0.02,264.3
2021-06-06T00:07:03,42.805,6.029,-0.011,-0.025,-0.009,101.0,103.0,101.0,13.4,1505.2,329.2,-0.8,1.8,2470.521,13.28,0.027,203.7
2021-06-06T00:10:03,42.805,6.029,-0.012,-0.013,-0.003,104.0,102.0,100.0,13.4,1505.2,327.7,-0.8,1.8,2470.528,13.29,0.017,222.7
2021-06-06T00:13:03,42.805,6.029,-0.012,-0.018,0.019,101.0,100.0,101.0,13.3,1505.2,327.9,-0.7,1.9,2470.534,13.29,0.021,213.7
2021-06-06T00:16:03,42.805,6.029,-0.006,-0.001,0.025,101.0,100.0,100.0,13.4,1505.2,325.7,-0.8,1.9,2470.482,13.29,0.006,260.5
2021-06-06T00:19:03,42.805,6.029,-0.007,-0.03,-0.003,101.0,102.0,101.0,13.4,1505.2,326.1,-0.8,1.8,2470.512,13.29,0.03,193.1
2021-06-06T00:22:03,42.805,6.029,-0.019,-0.018,0.011,102.0,101.0,100.0,13.3,1505.2,327.5,-0.8,1.8,2470.503,13.29,0.026,226.5
2021-06-06T00:25:03,42.805,6.029,0.011,-0.016,0.014,103.0,102.0,99.0,13.4,1505.2,326.1,-0.8,1.8,2470.533,13.29,0.019,145.5
2021-06-06T00:28:03,42.805,6.029,-0.013,-0.005,0.036,102.0,103.0,98.0,13.4,1505.2,328.1,-0.7,1.8,2470.541,13.29,0.013,249.0
2021-06-06T00:31:03,42.805,6.029,-0.011,0.0,0.005,101.0,100.0,99.0,13.4,1505.2,328.2,-0.7,1.8,2470.495,13.29,0.011,270.0
2021-06-06T00:34:03,42.805,6.029,0.006,-0.012,0.006,101.0,98.0,99.0,13.4,1505.2,327.9,-0.8,1.8,2470.526,13.29,0.013,153.4
2021-06-06T00:37:03,42.805,6.029,-0.03,-0.007,-0.009,101.0,101.0,100.0,13.4,1505.2,326.9,-0.8,1.8,2470.524,13.29,0.03,256.9
2021-06-06T00:40:03,42.805,6.029,-0.026,-0.018,-0.002,100.0,101.0,99.0,13.4,1505.2,326.0,-0.8,1.8,2470.548,13.29,0.031,235.3
2021-06-06T00:43:03,42.805,6.029,0.012,-0.015,0.006,100.0,99.0,99.0,13.4,1505.2,327.2,-0.7,1.8,2470.498,13.29,0.019,141.3
2021-06-06T00:46:03,42.805,6.029,0.011,-0.034,0.012,100.0,101.0,100.0,13.4,1505.2,326.3,-0.7,1.8,2470.55,13.29,0.035,162.1
2021-06-06T00:49:03,42.805,6.029,-0.013,0.002,0.029,101.0,101.0,99.0,13.4,1505.2,328.3,-0.8,1.8,2470.511,13.29,0.013,278.7
2021-06-06T00:52:03,42.805,6.029,0.017,-0.003,0.022,100.0,101.0,100.0,13.4,1505.2,327.7,-0.8,1.8,2470.554,13.29,0.017,100.0
2021-06-06T00:55:03,42.805,6.029,-0.009,0.005,0.057,100.0,101.0,100.0,13.3,1505.2,329.8,-0.7,1.8,2470.517,13.29,0.01,299.1
2021-06-06T00:58:03,42.805,6.029,-0.008,-0.003,-0.001,102.0,100.0,98.0,13.3,1505.2,327.1,-0.7,1.8,2470.524,13.29,0.008,249.4
2021-06-06T01:04:03,42.805,6.029,-0.009,-0.009,0.021,100.0,101.0,101.0,13.4,1505.2,328.6,-0.8,1.8,2470.569,13.28,0.012,225.0
2021-06-06T01:07:03,42.805,6.029,0.011,-0.02,0.017,101.0,100.0,101.0,13.3,1505.2,330.2,-0.7,1.8,2470.57,13.28,0.022,151.2
2021-06-06T01:10:03,42.805,6.029,-0.018,-0.008,0.005,99.0,101.0,101.0,13.3,1505.2,327.9,-0.8,1.8,2470.549,13.28,0.019,246.0
2021-06-06T01:13:03,42.805,6.029,-0.035,-0.007,0.006,102.0,99.0,101.0,13.4,1505.2,328.5,-0.7,1.8,2470.523,13.28,0.035,258.7
2021-06-06T01:16:03,42.805,6.029,0.014,-0.023,-0.011,101.0,102.0,100.0,13.3,1505.2,329.2,-0.8,1.9,2470.562,13.29,0.026,148.7
2021-06-06T01:19:03,42.805,6.029,0.013,-0.009,0.032,99.0,100.0,100.0,13.3,1505.2,326.4,-0.8,1.8,2470.538,13.29,0.015,124.7
2021-06-06T01:22:03,42.805,6.029,-0.017,-0.002,-0.021,100.0,101.0,101.0,13.3,1505.2,328.0,-0.8,1.8,2470.563,13.29,0.017,263.3
2021-06-06T01:25:03,42.805,6.029,-0.023,-0.007,-0.003,99.0,102.0,100.0,13.4,1505.2,330.1,-0.7,1.8,2470.554,13.29,0.024,253.1
2021-06-06T01:28:03,42.805,6.029,-0.001,-0.018,0.003,101.0,102.0,100.0,13.4,1505.2,328.1,-0.8,1.9,2470.515,13.29,0.018,183.2
2021-06-06T01:31:03,42.805,6.029,-0.007,0.0,0.004,98.0,101.0,100.0,13.3,1505.2,327.0,-0.8,1.8,2470.555,13.29,0.007,270.0
2021-06-06T01:34:03,42.805,6.029,-0.009,-0.013,-0.013,101.0,102.0,100.0,13.4,1505.2,327.2,-0.7,1.9,2470.532,13.29,0.015,214.7
2021-06-06T01:37:03,42.805,6.029,0.0,0.0,0.027,101.0,100.0,100.0,13.4,1505.2,329.9,-0.7,1.8,2470.552,13.29,0.0,0.0
2021-06-06T01:40:03,42.805,6.029,-0.012,-0.001,-0.005,101.0,101.0,99.0,13.3,1505.2,328.1,-0.8,1.8,2470.555,13.29,0.012,265.2
2021-06-06T01:43:03,42.805,6.029,0.012,-0.002,-0.015,100.0,100.0,101.0,13.4,1505.2,324.7,-0.8,1.8,2470.551,13.29,0.012,99.5
2021-06-06T01:46:03,42.805,6.029,0.021,-0.02,0.025,101.0,101.0,99.0,13.3,1505.2,325.0,-0.8,1.8,2470.572,13.29,0.028,133.6
2021-06-06T01:49:03,42.805,6.029,0.0,-0.033,-0.023,103.0,101.0,100.0,13.3,1505.2,326.1,-0.7,1.8,2470.528,13.29,0.033,180.0
2021-06-06T01:52:03,42.805,6.029,-0.011,0.009,0.026,102.0,102.0,100.0,13.4,1505.2,328.1,-0.7,1.8,2470.509,13.29,0.014,309.3
2021-06-06T01:55:03,42.805,6.029,0.015,0.002,0.032,100.0,100.0,100.0,13.4,1505.2,326.0,-0.8,1.8,2470.558,13.29,0.015,82.4
2021-06-06T01:58:03,42.805,6.029,-0.016,0.0,0.01,99.0,101.0,101.0,13.4,1505.2,327.7,-0.8,1.8,2470.558,13.28,0.016,270.0
2021-06-06T02:04:03,42.805,6.029,0.009,-0.022,0.017,101.0,101.0,100.0,13.4,1505.2,327.8,-0.8,1.8,2470.6,13.28,0.023,157.8
2021-06-06T02:07:03,42.805,6.029,-0.026,-0.003,0.017,101.0,101.0,100.0,13.4,1505.2,326.5,-0.7,1.8,2470.574,13.28,0.026,263.4
2021-06-06T02:10:03,42.805,6.029,-0.007,-0.016,0.014,101.0,101.0,99.0,13.3,1505.2,324.5,-0.7,1.8,2470.578,13.28,0.017,203.6
2021-06-06T02:13:03,42.805,6.029,-0.003,-0.005,0.029,102.0,102.0,99.0,13.4,1505.2,327.4,-0.8,1.8,2470.606,13.28,0.005,211.0
2021-06-06T02:16:03,42.805,6.029,-0.012,-0.016,0.013,99.0,102.0,100.0,13.3,1505.2,329.3,-0.8,1.8,2470.591,13.28,0.02,216.9
2021-06-06T02:19:03,42.805,6.029,0.0,-0.009,-0.013,103.0,102.0,100.0,13.4,1505.2,326.0,-0.7,1.8,2470.556,13.28,0.009,180.0
2021-06-06T02:22:03,42.805,6.029,-0.013,-0.021,0.012,99.0,104.0,100.0,13.4,1505.2,330.1,-0.7,1.8,2470.591,13.28,0.024,211.8
2021-06-06T02:25:03,42.805,6.029,-0.007,-0.008,0.012,102.0,101.0,100.0,13.4,1505.2,327.8,-0.8,1.8,2470.569,13.28,0.01,221.2
2021-06-06T02:28:03,42.805,6.029,-0.023,-0.028,-0.004,101.0,102.0,100.0,13.4,1505.2,328.8,-0.7,1.8,2470.564,13.28,0.036,219.4
2021-06-06T02:31:03,42.805,6.029,-0.016,-0.021,-0.002,101.0,102.0,99.0,13.3,1505.2,328.2,-0.8,1.8,2470.606,13.28,0.026,217.3
2021-06-06T02:34:03,42.805,6.029,-0.007,-0.006,-0.014,100.0,101.0,100.0,13.3,1505.2,327.9,-0.8,1.8,2470.571,13.28,0.009,229.4
2021-06-06T02:37:03,42.805,6.029,0.0,-0.013,0.038,99.0,101.0,100.0,13.3,1505.2,326.2,-0.7,1.8,2470.578,13.28,0.013,180.0
2021-06-06T02:40:03,42.805,6.029,-0.013,-0.025,-0.008,100.0,103.0,98.0,13.4,1505.2,328.2,-0.8,1.8,2470.611,13.28,0.028,207.5
2021-06-06T02:43:03,42.805,6.029,-0.008,0.018,0.012,100.0,101.0,101.0,13.3,1505.2,329.2,-0.7,1.8,2470.581,13.28,0.019,336.0
2021-06-06T02:46:03,42.805,6.029,0.009,-0.031,-0.022,101.0,103.0,99.0,13.4,1505.2,328.9,-0.7,1.9,2470.588,13.28,0.032,163.8
2021-06-06T02:49:03,42.805,6.029,-0.017,0.0,-0.001,100.0,101.0,101.0,13.4,1505.2,329.6,-0.8,1.8,2470.618,13.28,0.017,270.0
2021-06-06T02:52:03,42.805,6.029,-0.014,-0.025,0.008,103.0,101.0,99.0,13.4,1505.2,329.9,-0.7,1.8,2470.595,13.28,0.028,209.3
2021-06-06T02:55:03,42.805,6.029,-0.02,-0.009,-0.001,99.0,100.0,100.0,13.4,1505.2,329.0,-0.8,1.8,2470.591,13.28,0.021,245.8
2021-06-06T02:58:03,42.805,6.029,0.003,-0.015,0.008,100.0,102.0,99.0,13.4,1505.2,329.5,-0.8,1.8,2470.624,13.28,0.015,168.7
2021-06-06T03:04:03,42.805,6.029,-0.017,-0.004,0.018,100.0,101.0,100.0,13.4,1505.2,329.2,-0.7,1.8,2470.633,13.28,0.017,256.8
2021-06-06T03:07:03,42.805,6.029,0.016,-0.042,-0.019,100.0,101.0,100.0,13.4,1505.2,324.7,-0.7,1.8,2470.608,13.28,0.044,159.1
2021-06-06T03:10:03,42.805,6.029,0.016,-0.019,0.0,101.0,101.0,100.0,13.4,1505.2,327.1,-0.8,1.8,2470.638,13.28,0.024,139.9
2021-06-06T03:13:03,42.805,6.029,0.004,-0.007,0.015,101.0,104.0,100.0,13.4,1505.2,326.4,-0.7,1.8,2470.613,13.28,0.008,150.3
2021-06-06T03:16:03,42.805,6.029,-0.016,-0.028,-0.032,101.0,101.0,100.0,13.3,1505.2,324.5,-0.8,1.8,2470.631,13.28,0.032,209.7
2021-06-06T03:19:03,42.805,6.029,-0.002,-0.025,0.025,102.0,100.0,99.0,13.4,1505.2,326.3,-0.8,1.8,2470.612,13.28,0.025,184.6
2021-06-06T03:22:03,42.805,6.029,-0.011,-0.013,-0.014,101.0,102.0,100.0,13.4,1505.2,326.1,-0.7,1.8,2470.588,13.28,0.017,220.2
2021-06-06T03:25:03,42.805,6.029,-0.007,0.009,-0.002,102.0,102.0,100.0,13.4,1505.2,328.7,-0.8,1.8,2470.601,13.28,0.011,322.1
2021-06-06T03:28:03,42.805,6.029,-0.002,-0.004,0.012,103.0,101.0,100.0,13.3,1505.2,329.6,-0.8,1.8,2470.593,13.28,0.004,206.6
2021-06-06T03:31:03,42.805,6.029,0.007,-0.01,0.03,100.0,101.0,100.0,13.4,1505.2,324.7,-0.7,1.8,2470.62,13.28,0.012,145.0
2021-06-06T03:34:03,42.805,6.029,-0.016,0.008,0.015,103.0,100.0,99.0,13.4,1505.2,324.7,-0.7,1.8,2470.58,13.28,0.017,296.6
2021-06-06T03:37:03,42.805,6.029,0.018,-0.022,0.003,102.0,103.0,100.0,13.3,1505.2,327.3,-0.7,1.8,2470.641,13.28,0.028,140.7
2021-06-06T03:40:03,42.805,6.029,0.002,-0.007,0.019,101.0,100.0,100.0,13.4,1505.2,329.6,-0.7,1.8,2470.627,13.28,0.007,164.1
2021-06-06T03:43:03,42.805,6.029,0.022,-0.027,0.006,102.0,101.0,102.0,13.4,1505.2,327.1,-0.7,1.8,2470.685,13.28,0.034,140.8
2021-06-06T03:46:03,42.805,6.029,-0.001,0.009,0.03,101.0,101.0,101.0,13.4,1505.2,326.1,-0.8,1.9,2470.637,13.28,0.009,353.7
2021-06-06T03:49:03,42.805,6.029,-0.002,-0.015,0.0,100.0,102.0,100.0,13.4,1505.2,326.3,-0.8,1.8,2470.631,13.29,0.015,187.6
2021-06-06T03:52:03,42.805,6.029,0.004,-0.005,0.025,100.0,102.0,100.0,13.4,1505.2,328.0,-0.8,1.8,2470.629,13.28,0.006,141.3
2021-06-06T03:55:03,42.805,6.029,-0.009,-0.025,-0.024,102.0,101.0,100.0,13.3,1505.2,328.6,-0.7,1.8,2470.625,13.28,0.026,199.8
2021-06-06T03:58:03,42.805,6.029,0.014,-0.03,0.011,103.0,101.0,100.0,13.4,1505.2,328.6,-0.7,1.8,2470.642,13.28,0.033,155.0
2021-06-06T04:04:03,42.805,6.029,-0.006,-0.013,0.023,100.0,103.0,101.0,13.4,1505.2,326.3,-0.8,1.8,2470.691,13.28,0.014,204.8
2021-06-06T04:07:03,42.805,6.029,-0.012,-0.011,0.008,100.0,102.0,101.0,13.4,1505.2,324.3,-0.7,1.8,2470.639,13.28,0.016,227.5
2021-06-06T04:10:03,42.805,6.029,-0.016,-0.024,0.007,102.0,101.0,100.0,13.3,1505.2,329.7,-0.7,1.8,2470.623,13.28,0.028,213.7
2021-06-06T04:13:03,42.805,6.029,0.0,-0.01,0.008,100.0,102.0,101.0,13.3,1505.2,326.8,-0.7,1.8,2470.596,13.28,0.01,180.0
2021-06-06T04:16:03,42.805,6.029,0.005,-0.024,0.027,103.0,100.0,100.0,13.3,1505.2,329.7,-0.8,1.8,2470.637,13.28,0.024,168.2
2021-06-06T04:19:03,42.805,6.029,-0.014,-0.044,-0.03,102.0,102.0,99.0,13.4,1505.2,327.2,-0.7,1.9,2470.652,13.28,0.046,197.6
2021-06-06T04:22:03,42.805,6.029,0.003,-0.001,0.04,100.0,100.0,100.0,13.4,1505.2,325.3,-0.7,1.8,2470.612,13.28,0.003,108.4
2021-06-06T04:25:03,42.805,6.029,-0.021,-0.007,0.018,101.0,102.0,101.0,13.4,1505.2,328.0,-0.8,1.8,2470.615,13.28,0.022,251.6
2021-06-06T04:28:03,42.805,6.029,0.015,-0.019,-0.012,103.0,102.0,101.0,13.4,1505.2,326.3,-0.7,1.8,2470.614,13.28,0.024,141.7
2021-06-06T04:31:03,42.805,6.029,-0.019,-0.006,0.0,101.0,100.0,100.0,13.3,1505.2,329.3,-0.8,1.8,2470.633,13.28,0.019,252.5
2021-06-06T04:34:03,42.805,6.029,0.0,-0.021,0.0,99.0,106.0,100.0,13.4,1505.2,329.8,-0.7,1.8,2470.587,13.28,0.021,180.0
2021-06-06T04:37:03,42.805,6.029,-0.034,-0.021,-0.013,99.0,101.0,101.0,13.3,1505.2,328.1,-0.8,1.8,2470.652,13.28,0.039,238.3
2021-06-06T04:40:03,42.805,6.029,0.015,-0.008,0.021,101.0,101.0,100.0,13.4,1505.2,328.8,-0.8,1.8,2470.624,13.28,0.017,118.1
2021-06-06T04:43:03,42.805,6.029,0.013,-0.004,0.013,100.0,101.0,100.0,13.4,1505.2,327.1,-0.8,1.8,2470.625,13.28,0.013,107.1
2021-06-06T04:46:03,42.805,6.029,-0.007,-0.024,0.025,101.0,102.0,100.0,13.3,1505.2,324.6,-0.8,1.8,2470.616,13.28,0.025,196.3
2021-06-06T04:49:03,42.805,6.029,0.004,-0.016,0.0,99.0,101.0,102.0,13.3,1505.2,325.6,-0.8,1.8,2470.594,13.28,0.016,166.0
2021-06-06T04:52:03,42.805,6.029,-0.008,-0.005,-0.02,101.0,103.0,100.0,13.4,1505.2,325.4,-0.8,1.8,2470.628,13.28,0.009,238.0
2021-06-06T04:55:03,42.805,6.029,-0.014,-0.028,-0.02,102.0,102.0,99.0,13.3,1505.2,327.4,-0.8,1.8,2470.61,13.28,0.031,206.6
2021-06-06T04:58:03,42.805,6.029,0.006,-0.015,-0.023,103.0,101.0,99.0,13.3,1505.2,329.4,-0.8,1.8,2470.603,13.28,0.016,158.2
2021-06-06T05:04:03,42.805,6.029,0.0,-0.016,0.0,102.0,101.0,101.0,13.4,1505.2,328.5,-0.7,1.8,2470.65,13.28,0.016,180.0
2021-06-06T05:07:03,42.805,6.029,-0.003,-0.02,0.015,100.0,101.0,99.0,13.4,1505.2,326.9,-0.8,1.8,2470.63,13.28,0.02,188.5
2021-06-06T05:10:03,42.805,6.029,0.0,-0.02,0.009,99.0,102.0,101.0,13.4,1505.2,328.9,-0.8,1.8,2470.593,13.28,0.02,180.0
2021-06-06T05:13:03,42.805,6.029,-0.009,-0.022,0.012,99.0,102.0,101.0,13.4,1505.2,324.5,-0.8,1.8,2470.591,13.28,0.023,202.2
2021-06-06T05:16:03,42.805,6.029,-0.01,-0.015,0.001,98.0,100.0,101.0,13.4,1505.2,325.7,-0.8,1.8,2470.61,13.28,0.018,213.7
2021-06-06T05:19:03,42.805,6.029,-0.01,-0.041,-0.023,100.0,101.0,101.0,13.4,1505.2,327.2,-0.7,1.8,2470.597,13.28,0.042,193.7
2021-06-06T05:22:03,42.805,6.029,-0.004,-0.003,-0.018,99.0,101.0,100.0,13.3,1505.2,327.1,-0.8,1.8,2470.629,13.28,0.005,233.1
2021-06-06T05:25:03,42.805,6.029,-0.028,-0.036,-0.012,101.0,101.0,101.0,13.4,1505.2,326.9,-0.8,1.8,2470.637,13.28,0.045,217.9
2021-06-06T05:28:03,42.805,6.029,0.004,-0.008,0.014,101.0,103.0,99.0,13.3,1505.2,328.8,-0.8,1.8,2470.607,13.28,0.008,153.4
2021-06-06T05:31:03,42.805,6.029,0.024,-0.041,-0.015,100.0,101.0,100.0,13.3,1505.2,327.0,-0.7,1.8,2470.565,13.29,0.047,149.7
2021-06-06T05:34:03,42.805,6.029,-0.01,0.011,0.003,101.0,101.0,99.0,13.4,1505.2,329.7,-0.8,1.8,2470.619,13.29,0.014,317.7
2021-06-06T05:37:03,42.805,6.029,-0.038,-0.01,0.01,100.0,102.0,100.0,13.4,1505.2,329.2,-0.7,1.8,2470.591,13.29,0.039,255.3
2021-06-06T05:40:03,42.805,6.029,-0.002,-0.015,0.01,101.0,101.0,100.0,13.3,1505.2,324.5,-0.8,1.8,2470.552,13.29,0.015,187.6
2021-06-06T05:43:03,42.805,6.029,-0.005,-0.015,0.009,101.0,101.0,100.0,13.4,1505.2,329.7,-0.8,1.8,2470.587,13.29,0.015,198.4
2021-06-06T05:46:03,42.805,6.029,0.009,0.006,0.021,102.0,99.0,100.0,13.4,1505.2,325.6,-0.8,1.8,2470.567,13.29,0.01,56.3
2021-06-06T05:49:03,42.805,6.029,0.006,-0.036,-0.005,102.0,100.0,99.0,13.3,1505.2,328.5,-0.8,1.8,2470.597,13.29,0.036,170.5
2021-06-06T05:52:03,42.805,6.029,-0.008,-0.018,0.048,101.0,101.0,99.0,13.4,1505.2,325.9,-0.8,1.8,2470.574,13.29,0.019,204.0
2021-06-06T05:55:03,42.805,6.029,-0.007,-0.019,0.029,102.0,101.0,99.0,13.4,1505.2,327.2,-0.7,1.8,2470.596,13.29,0.02,200.2
2021-06-06T05:58:03,42.805,6.029,-0.01,-0.024,0.008,101.0,101.0,101.0,13.4,1505.2,327.8,-0.8,1.8,2470.579,13.29,0.026,202.6
2021-06-06T06:04:03,42.805,6.029,-0.008,-0.012,-0.008,99.0,103.0,101.0,13.4,1505.2,328.3,-0.8,1.8,2470.596,13.28,0.014,213.7
2021-06-06T06:07:03,42.805,6.029,-0.015,-0.011,-0.008,101.0,101.0,99.0,13.4,1505.2,329.6,-0.8,1.9,2470.594,13.28,0.018,233.7
2021-06-06T06:10:03,42.805,6.029,0.0,-0.024,0.0,99.0,100.0,100.0,13.4,1505.2,326.5,-0.7,1.8,2470.586,13.28,0.024,180.0
2021-06-06T06:13:03,42.805,6.029,-0.017,-0.002,0.012,102.0,101.0,99.0,13.4,1505.2,329.3,-0.8,1.8,2470.563,13.28,0.017,263.3
2021-06-06T06:16:03,42.805,6.029,0.0,0.006,0.008,100.0,102.0,100.0,13.4,1505.2,327.4,-0.8,1.8,2470.588,13.29,0.006,0.0
2021-06-06T06:19:03,42.805,6.029,-0.03,0.004,0.014,99.0,99.0,101.0,13.4,1505.2,326.2,-0.8,1.8,2470.55,13.29,0.03,277.6
2021-06-06T06:22:03,42.805,6.029,-0.02,-0.006,0.0,101.0,100.0,100.0,13.4,1505.2,328.4,-0.7,1.8,2470.53,13.29,0.02,253.3
2021-06-06T06:25:03,42.805,6.029,-0.015,-0.013,0.028,100.0,102.0,100.0,13.4,1505.2,326.2,-0.8,1.8,2470.568,13.29,0.019,229.1
2021-06-06T06:28:03,42.805,6.029,-0.015,-0.01,-0.01,98.0,101.0,101.0,13.3,1505.2,325.9,-0.7,1.8,2470.574,13.29,0.018,236.3
2021-06-06T06:31:03,42.805,6.029,-0.022,-0.009,0.01,99.0,100.0,100.0,13.4,1505.2,329.3,-0.7,1.8,2470.615,13.29,0.023,247.8
2021-06-06T06:34:03,42.805,6.029,-0.003,-0.034,-0.013,100.0,100.0,102.0,13.4,1505.2,328.8,-0.7,1.8,2470.575,13.29,0.034,185.0
2021-06-06T06:37:03,42.805,6.029,-0.016,-0.016,-0.023,99.0,101.0,101.0,13.4,1505.2,327.8,-0.7,1.8,2470.552,13.29,0.022,225.0
2021-06-06T06:40:03,42.805,6.029,-0.007,0.0,0.002,101.0,100.0,101.0,13.4,1505.2,325.5,-0.7,1.9,2470.567,13.29,0.007,270.0
2021-06-06T06:43:03,42.805,6.029,-0.007,-0.001,0.032,100.0,102.0,100.0,13.4,1505.2,327.0,-0.7,1.8,2470.554,13.29,0.007,261.9
2021-06-06T06:46:03,42.805,6.029,-0.001,-0.011,0.029,102.0,100.0,101.0,13.4,1505.2,324.8,-0.8,1.8,2470.532,13.29,0.011,185.2
2021-06-06T06:49:03,42.805,6.029,-0.012,-0.015,0.017,100.0,101.0,99.0,13.3,1505.2,328.7,-0.7,1.8,2470.557,13.29,0.019,218.7
2021-06-06T06:52:03,42.805,6.029,-0.014,-0.011,0.011,102.0,101.0,98.0,13.4,1505.2,325.8,-0.8,1.8,2470.552,13.29,0.017,231.8
2021-06-06T06:55:03,42.805,6.029,0.003,-0.01,0.027,101.0,103.0,99.0,13.4,1505.2,325.5,-0.8,1.8,2470.529,13.29,0.01,163.3
2021-06-06T06:58:03,42.805,6.029,-0.01,-0.014,0.025,99.0,101.0,101.0,13.3,1505.2,326.1,-0.7,1.8,2470.506,13.29,0.017,215.5
2021-06-06T07:04:03,42.805,6.029,0.007,-0.005,0.009,102.0,101.0,106.0,13.3,1505.2,327.7,-0.8,1.8,2470.529,13.28,0.008,125.5
2021-06-06T07:07:03,42.805,6.029,0.01,-0.001,0.036,100.0,101.0,100.0,13.3,1505.2,329.1,-0.8,1.8,2470.48,13.28,0.01,95.7
2021-06-06T07:10:03,42.805,6.029,-0.017,0.007,-0.017,103.0,102.0,99.0,13.3,1505.2,328.4,-0.8,1.8,2470.534,13.28,0.018,292.4
2021-06-06T07:13:03,42.805,6.029,-0.004,0.0,0.041,101.0,101.0,100.0,13.4,1505.2,328.8,-0.7,1.8,2470.499,13.28,0.004,270.0
2021-06-06T07:16:03,42.805,6.029,-0.003,-0.008,0.037,101.0,103.0,100.0,13.3,1505.2,328.2,-0.8,1.8,2470.491,13.28,0.008,200.6
2021-06-06T07:19:03,42.805,6.029,0.014,-0.001,0.009,98.0,104.0,101.0,13.3,1505.2,329.4,-0.7,1.8,2470.529,13.28,0.014,94.1
2021-06-06T07:22:03,42.805,6.029,-0.005,-0.008,0.029,101.0,100.0,100.0,13.3,1505.2,324.8,-0.8,1.8,2470.481,13.28,0.009,212.0
2021-06-06T07:25:03,42.805,6.029,0.0,0.002,0.028,102.0,101.0,102.0,13.4,1505.2,325.6,-0.7,1.8,2470.493,13.29,0.002,0.0
2021-06-06T07:28:03,42.805,6.029,-0.009,-0.013,-0.003,105.0,101.0,101.0,13.4,1505.2,327.0,-0.7,1.8,2470.477,13.29,0.015,214.7
2021-06-06T07:31:03,42.805,6.029,0.0,-0.031,-0.036,102.0,103.0,99.0,13.4,1505.2,329.0,-0.8,1.9,2470.488,13.29,0.03,180.0
2021-06-06T07:34:03,42.805,6.029,0.004,-0.01,0.014,103.0,103.0,100.0,13.3,1505.2,329.1,-0.7,1.8,2470.469,13.29,0.01,158.2
2021-06-06T07:37:03,42.805,6.029,0.004,-0.06,-0.043,100.0,101.0,100.0,13.4,1505.2,327.0,-0.8,1.8,2470.472,13.29,0.06,176.2
2021-06-06T07:40:03,42.805,6.029,-0.022,-0.024,0.013,101.0,101.0,101.0,13.3,1505.2,330.0,-0.8,1.9,2470.441,13.29,0.032,222.5
2021-06-06T07:43:03,42.805,6.029,0.004,-0.03,-0.005,103.0,100.0,102.0,13.4,1505.2,325.0,-0.7,1.8,2470.462,13.29,0.03,172.4
2021-06-06T07:46:03,42.805,6.029,-0.023,-0.033,-0.036,102.0,100.0,100.0,13.4,1505.2,325.2,-0.8,1.8,2470.46,13.29,0.04,214.9
2021-06-06T07:49:03,42.805,6.029,-0.022,-0.018,0.024,102.0,101.0,100.0,13.4,1505.2,328.1,-0.7,1.8,2470.493,13.29,0.028,230.7
2021-06-06T07:52:03,42.805,6.029,0.012,-0.033,0.011,99.0,105.0,100.0,13.3,1505.2,326.0,-0.8,1.8,2470.464,13.29,0.035,160.0
2021-06-06T07:55:03,42.805,6.029,-0.027,0.002,0.014,102.0,103.0,100.0,13.3,1505.2,329.0,-0.8,1.8,2470.463,13.29,0.027,274.2
2021-06-06T07:58:03,42.805,6.029,-0.021,-0.016,0.0,101.0,101.0,100.0,13.4,1505.2,327.9,-0.7,1.8,2470.42,13.29,0.026,232.7
2021-06-06T08:01:03,42.805,6.029,-0.036,-0.016,-0.023,101.0,100.0,100.0,13.4,1505.2,328.2,-0.8,1.8,2470.414,13.29,0.039,246.0
2021-06-06T08:04:03,42.805,6.029,0.003,-0.01,-0.001,101.0,101.0,101.0,13.3,1505.2,326.4,-0.8,1.8,2470.442,13.29,0.01,163.3
2021-06-06T08:07:03,42.805,6.029,-0.001,-0.032,-0.011,102.0,105.0,100.0,13.4,1505.2,326.5,-0.8,1.8,2470.441,13.29,0.032,181.8
2021-06-06T08:10:03,42.805,6.029,-0.021,-0.006,0.0,102.0,103.0,101.0,13.4,1505.2,324.7,-0.7,1.8,2470.45,13.29,0.021,254.1
2021-06-06T08:13:03,42.805,6.029,-0.003,-0.019,0.008,101.0,102.0,101.0,13.4,1505.2,327.1,-0.7,1.8,2470.43,13.29,0.019,189.0
2021-06-06T08:16:03,42.805,6.029,0.004,-0.004,0.011,101.0,102.0,100.0,13.3,1505.2,328.5,-0.8,1.9,2470.44,13.29,0.005,135.0
2021-06-06T08:19:03,42.805,6.029,-0.013,-0.011,0.026,103.0,101.0,100.0,13.4,1505.2,324.9,-0.7,1.9,2470.416,13.29,0.017,229.8
2021-06-06T08:22:03,42.805,6.029,-0.001,0.002,0.015,100.0,104.0,100.0,13.3,1505.2,325.7,-0.7,1.8,2470.503,13.29,0.002,333.4
2021-06-06T08:25:03,42.805,6.029,0.01,-0.026,0.028,101.0,103.0,100.0,13.4,1505.2,326.4,-0.7,1.8,2470.436,13.29,0.027,159.0
2021-06-06T08:28:03,42.805,6.029,0.012,-0.028,0.007,101.0,100.0,100.0,13.4,1505.2,326.5,-0.8,1.8,2470.472,13.29,0.03,156.8
2021-06-06T08:31:03,42.805,6.029,0.015,-0.02,0.018,101.0,101.0,100.0,13.4,1505.2,329.2,-0.7,1.8,2470.451,13.29,0.025,143.1
2021-06-06T08:34:03,42.805,6.029,0.024,-0.021,0.01,100.0,103.0,100.0,13.4,1505.2,328.2,-0.7,1.8,2470.463,13.29,0.031,131.2
2021-06-06T08:37:03,42.805,6.029,-0.009,-0.016,0.004,102.0,103.0,100.0,13.3,1505.2,329.0,-0.8,1.8,2470.485,13.29,0.018,209.4
2021-06-06T08:40:03,42.805,6.029,0.0,-0.015,-0.009,101.0,102.0,99.0,13.4,1505.2,329.2,-0.7,1.8,2470.438,13.29,0.015,180.0
2021-06-06T08:43:03,42.805,6.029,-0.015,-0.01,-0.019,101.0,102.0,100.0,13.3,1505.2,328.3,-0.8,1.8,2470.453,13.29,0.018,236.3
2021-06-06T08:46:03,42.805,6.029,0.009,-0.023,-0.004,101.0,104.0,99.0,13.4,1505.2,328.1,-0.7,1.8,2470.478,13.29,0.024,158.6
2021-06-06T08:49:03,42.805,6.029,-0.003,-0.023,-0.021,100.0,101.0,99.0,13.4,1505.2,327.3,-0.8,1.8,2470.46,13.29,0.023,187.4
2021-06-06T08:52:03,42.805,6.029,0.007,-0.007,0.006,100.0,102.0,100.0,13.4,1505.2,329.8,-0.7,1.8,2470.494,13.29,0.009,135.0
2021-06-06T08:55:03,42.805,6.029,0.012,-0.018,-0.001,100.0,103.0,99.0,13.4,1505.2,324.8,-0.8,1.8,2470.466,13.29,0.021,146.3
2021-06-06T08:58:03,42.805,6.029,-0.004,-0.004,0.027,102.0,101.0,100.0,13.3,1505.2,326.1,-0.8,1.8,2470.444,13.29,0.005,225.0
2021-06-06T09:04:03,42.805,6.029,0.009,-0.015,0.009,100.0,100.0,100.0,13.4,1505.2,325.5,-0.8,1.8,2470.455,13.28,0.017,149.0
2021-06-06T09:07:03,42.805,6.029,-0.003,-0.033,-0.021,101.0,101.0,100.0,13.4,1505.2,327.5,-0.8,1.9,2470.474,13.28,0.033,185.2
2021-06-06T09:10:03,42.805,6.029,-0.004,0.0,0.015,102.0,103.0,101.0,13.4,1505.2,327.2,-0.8,1.8,2470.459,13.28,0.004,270.0
2021-06-06T09:13:03,42.805,6.029,-0.01,-0.005,-0.021,101.0,101.0,101.0,13.4,1505.2,329.5,-0.7,1.8,2470.449,13.28,0.011,243.4
2021-06-06T09:16:03,42.805,6.029,0.021,-0.025,-0.022,103.0,102.0,99.0,13.3,1505.2,326.0,-0.8,1.9,2470.502,13.29,0.032,140.0
2021-06-06T09:19:03,42.805,6.029,-0.024,-0.026,-0.006,100.0,101.0,101.0,13.4,1505.2,327.9,-0.8,1.8,2470.46,13.29,0.035,222.7
2021-06-06T09:22:03,42.805,6.029,0.005,-0.007,0.022,101.0,102.0,100.0,13.4,1505.2,327.7,-0.8,1.8,2470.443,13.29,0.008,144.5
2021-06-06T09:25:03,42.805,6.029,-0.016,-0.015,0.023,100.0,102.0,99.0,13.4,1505.2,328.2,-0.8,1.9,2470.478,13.29,0.021,226.9
2021-06-06T09:28:03,42.805,6.029,0.003,-0.004,0.043,100.0,102.0,100.0,13.4,1505.2,326.7,-0.8,1.8,2470.455,13.29,0.005,143.1
2021-06-06T09:31:03,42.805,6.029,-0.001,-0.031,0.013,102.0,102.0,100.0,13.4,1505.2,328.1,-0.8,1.8,2470.458,13.29,0.031,181.8
2021-06-06T09:34:03,42.805,6.029,0.004,-0.019,0.004,103.0,101.0,99.0,13.4,1505.2,329.0,-0.8,1.8,2470.433,13.29,0.019,168.1
2021-06-06T09:37:03,42.805,6.029,0.005,0.0,0.0,101.0,102.0,100.0,13.3,1505.2,328.2,-0.8,1.8,2470.452,13.29,0.005,90.0
2021-06-06T09:40:03,42.805,6.029,-0.001,-0.015,0.027,101.0,101.0,100.0,13.4,1505.2,326.6,-0.8,1.8,2470.443,13.29,0.015,183.8
2021-06-06T09:43:03,42.805,6.029,-0.01,-0.022,-0.006,101.0,100.0,100.0,13.4,1505.2,326.8,-0.7,1.8,2470.411,13.29,0.024,204.4
2021-06-06T09:46:03,42.805,6.029,-0.033,-0.001,0.026,101.0,99.0,99.0,13.4,1505.2,328.1,-0.8,1.8,2470.43,13.29,0.033,268.3
2021-06-06T09:49:03,42.805,6.029,-0.02,0.003,0.01,99.0,103.0,100.0,13.4,1505.2,325.3,-0.8,1.8,2470.459,13.29,0.02,278.5
2021-06-06T09:52:03,42.805,6.029,-0.015,-0.017,-0.014,101.0,102.0,98.0,13.3,1505.2,328.3,-0.8,1.8,2470.431,13.29,0.022,221.4
2021-06-06T09:55:03,42.805,6.029,-0.012,0.003,-0.011,101.0,101.0,99.0,13.3,1505.2,325.0,-0.8,1.8,2470.435,13.29,0.012,284.0